Wind_Speed
19 19 18 18 18 18 18 19 21 22 22 23 24 25 26 28 29 26 23 23 22 24 26 25 26 29 29 28 26 25 26 27 29 30 31 31 32 32 32 32 32 32 31 31 32 31 30 29 28 27 26 26 25 25 24 24 24 23 24 24 24 25 25 25 25 26 27 28 29 30 31 32 33 34 35 36 38 39 41 43 44 46 47 48 49 49
18 17 16 16 16 17 18 18 20 20 21 22 22 24 25 25 27 25 22 21 19 20 23 23 24 27 28 28 27 27 28 30 31 31 29 29 28 28 29 30 30 31 31 30 30 30 29 27 26 26 25 25 24 23 23 23 23 23 24 24 25 25 26 26 27 29 30 31 32 33 34 35 36 37 39 40 41 42 43 45 47 48 49 49 50 50
16 15 14 15 15 16 17 17 18 20 21 22 22 24 25 24 25 23 20 19 18 19 22 23 24 27 29 29 30 31 31 30 28 27 25 23 23 25 27 28 29 29 29 29 29 28 27 26 25 24 24 23 23 23 23 23 24 24 25 25 25 26 27 28 29 31 32 33 34 36 37 38 39 40 41 42 44 45 46 47 48 49 49 49 49 50
15 13 12 13 15 15 17 17 19 21 21 21 21 22 23 21 19 20 20 20 20 21 22 24 26 30 32 32 32 32 29 25 22 20 19 19 20 22 25 27 27 28 27 27 27 26 26 25 24 23 23 22 23 23 23 24 24 25 25 26 27 27 28 30 31 32 34 35 36 37 39 40 41 42 43 44 46 47 47 48 48 48 48 48 49 49
13 12 13 15 16 17 18 18 19 20 20 19 18 18 18 17 17 20 22 23 24 25 23 23 23 26 28 28 28 26 21 18 17 16 16 17 20 23 25 26 26 25 25 25 25 25 24 23 22 22 22 22 22 23 23 24 24 25 26 26 28 29 30 32 33 35 36 37 39 39 40 41 42 43 44 45 45 46 46 47 46 47 47 48 48 48
11 14 16 17 17 18 18 17 17 18 20 19 16 15 16 19 21 22 24 24 24 23 19 14 11 13 17 18 18 19 16 14 13 14 16 19 22 24 25 26 26 25 24 24 23 23 22 22 22 22 22 22 22 23 23 24 24 25 26 28 29 31 33 34 36 37 39 40 42 43 44 45 46 46 46 47 46 46 46 46 46 46 46 46 45 45
14 17 17 18 18 17 15 16 17 19 21 20 17 17 20 25 26 25 24 22 19 17 18 13 8 10 16 16 16 17 16 14 13 14 19 22 24 26 26 26 26 25 24 23 22 22 21 22 22 22 22 22 23 23 23 24 25 26 28 29 31 33 35 37 39 40 41 43 44 45 46 47 48 48 48 48 48 48 48 47 46 46 45 45 44 43
18 18 17 18 16 14 15 18 19 20 21 21 22 25 27 28 26 23 23 22 22 24 25 21 15 15 17 16 15 15 13 13 14 18 22 25 25 26 26 25 25 23 22 22 21 20 21 21 21 21 22 22 22 23 23 24 26 27 30 32 34 36 38 39 41 42 43 44 45 45 46 47 47 48 48 48 48 48 48 47 47 46 45 44 43 42
19 18 17 16 13 15 19 20 19 21 24 25 26 27 26 24 23 24 25 25 24 23 22 18 14 12 11 12 12 12 14 14 17 22 25 26 26 25 25 24 23 22 22 21 20 20 19 20 20 20 21 21 22 23 24 26 27 29 32 34 36 38 40 41 42 43 43 44 45 46 46 47 47 47 48 48 47 47 46 46 45 44 43 42 41 40
18 17 14 12 15 20 20 17 20 24 26 25 24 24 24 25 26 26 25 23 18 12 13 13 9 9 7 10 12 12 15 18 20 24 27 27 26 25 25 24 23 22 22 21 21 20 19 19 19 20 20 21 22 24 25 28 30 32 35 37 39 41 41 42 43 43 44 45 45 46 47 47 47 47 47 47 46 46 45 45 44 43 42 41 40 39
17 14 10 13 21 22 19 19 23 24 22 23 25 28 28 26 24 22 19 15 9 4 5 7 6 11 5 6 10 12 15 19 22 25 27 29 28 27 27 26 25 24 23 22 21 21 20 20 19 19 20 22 23 26 28 31 34 36 39 41 42 43 43 43 43 44 44 45 45 46 47 47 47 47 47 46 46 45 45 44 43 42 41 41 40 39
17 10 11 20 25 22 20 21 22 20 22 26 27 27 24 20 17 13 9 4 2 2 4 10 4 9 7 5 7 11 13 16 22 25 27 30 30 29 29 27 26 25 23 23 22 21 20 19 20 20 22 24 27 30 33 36 38 40 42 44 45 45 44 44 44 45 45 45 46 46 47 47 47 47 46 46 46 45 44 44 43 42 41 41 40 40
18 11 14 25 26 23 23 25 24 24 27 26 22 23 19 13 10 6 3 1 2 3 6 11 8 5 11 11 10 12 14 15 22 26 27 30 30 29 28 27 26 25 24 22 21 20 19 20 21 23 26 29 32 35 38 41 43 44 46 46 46 46 46 46 46 47 46 46 46 46 46 45 45 45 44 44 44 44 44 44 44 43 43 42 42 41
21 12 18 27 25 22 25 29 31 31 28 21 21 26 17 6 5 4 3 3 4 6 13 17 13 8 9 12 11 12 15 16 21 26 28 29 29 28 27 27 25 24 22 21 19 19 20 22 25 28 32 36 39 42 43 45 46 47 47 47 48 48 48 48 48 48 47 46 45 45 44 43 43 43 43 43 44 44 44 44 44 44 44 44 44 44
15 11 22 27 21 20 25 27 27 27 22 16 22 24 14 7 6 4 4 5 7 13 21 19 10 6 7 9 12 12 15 18 21 26 29 29 29 28 27 25 24 22 20 18 18 21 24 28 31 36 40 44 45 46 47 48 49 49 49 50 50 50 49 49 48 47 46 44 43 43 42 42 42 42 42 42 43 43 44 44 44 45 45 46 46 46
12 13 20 19 17 22 26 24 23 22 17 16 22 21 15 15 12 11 12 13 12 12 14 8 4 8 11 12 14 13 15 19 22 25 28 29 29 27 25 23 20 19 18 19 23 27 32 37 41 45 48 49 49 49 50 51 52 52 52 51 51 51 50 49 47 46 44 42 41 41 41 41 41 41 41 42 42 43 43 44 45 45 46 47 47 47
14 17 18 17 20 25 24 20 20 21 20 21 24 22 20 17 12 11 13 14 11 6 6 5 5 10 11 11 14 14 16 19 22 25 27 27 26 22 19 17 17 19 22 27 32 38 43 46 49 50 50 50 50 52 53 54 54 54 54 53 52 50 49 47 45 44 42 41 40 40 40 40 41 41 42 42 42 43 44 45 45 46 47 47 48 49
18 18 18 21 25 24 20 17 16 20 26 28 24 22 22 13 7 9 7 8 7 2 7 10 10 12 9 7 12 14 16 18 21 24 25 22 19 16 15 17 21 26 32 38 44 48 50 51 50 50 50 50 52 53 54 55 55 54 54 53 52 50 48 45 43 42 41 41 41 41 41 41 41 42 42 43 43 44 45 45 46 47 47 48 49 49
19 14 15 25 26 20 15 13 14 19 27 30 23 22 22 11 7 14 10 6 5 3 6 9 11 11 7 5 11 12 14 17 20 22 20 17 15 15 18 24 30 37 42 46 49 50 51 51 50 51 51 52 53 54 55 54 53 53 52 50 49 47 46 44 43 42 42 42 42 42 42 42 42 43 43 43 44 45 45 46 46 47 48 49 49 50
18 9 12 24 26 19 14 14 18 24 30 31 25 23 23 13 10 17 15 9 7 5 4 5 7 7 7 9 13 10 15 18 19 19 17 16 16 20 27 34 40 44 47 48 49 50 51 51 51 52 53 54 55 56 55 54 52 51 50 48 47 45 44 43 43 43 43 43 43 43 43 43 43 43 44 44 45 46 46 47 48 49 49 50 51 51
18 12 16 26 26 20 14 15 20 26 32 32 26 24 25 21 18 18 17 12 8 5 3 3 4 6 15 22 19 10 16 20 19 16 16 20 25 31 37 41 43 45 47 48 49 50 51 51 52 54 55 56 56 56 55 53 51 49 47 46 45 44 43 43 43 43 42 42 43 43 43 43 43 44 45 45 46 47 48 49 50 50 51 52 52 53
18 16 22 27 27 20 10 10 18 25 30 28 23 25 26 25 22 14 8 9 11 9 7 7 3 7 23 31 24 17 15 17 16 18 23 29 34 38 41 43 45 46 47 48 49 50 51 52 54 55 56 56 55 53 51 49 47 46 45 44 43 42 42 41 41 41 42 42 42 43 43 44 44 45 46 46 47 48 49 49 50 51 51 52 52 53
18 19 25 24 22 17 7 10 20 24 28 27 23 26 27 24 22 13 6 11 17 14 15 14 5 5 25 31 24 22 19 17 20 26 32 36 38 41 43 45 47 47 48 49 50 51 52 53 54 55 54 53 51 49 47 45 44 42 41 41 40 40 40 40 41 41 42 42 43 44 44 45 46 47 47 48 48 49 49 50 50 51 52 52 53 53
17 19 26 23 18 15 9 15 23 24 28 27 23 27 27 21 20 15 9 12 14 12 18 14 4 7 28 34 29 27 23 22 27 33 38 41 42 44 45 46 47 48 49 50 50 52 53 53 52 51 50 48 47 45 43 41 40 39 39 39 39 39 39 40 41 41 42 43 44 45 45 46 47 48 49 49 49 50 50 50 51 51 52 52 53 53
17 18 24 19 14 13 11 16 25 30 31 26 22 23 20 16 15 12 11 11 9 13 20 11 4 16 32 35 34 32 27 27 32 38 42 43 45 45 44 45 47 47 49 49 50 51 51 50 50 48 47 45 44 42 40 40 39 39 39 39 39 39 40 40 41 42 43 43 45 46 47 48 48 48 49 49 50 50 50 51 51 52 52 53 53 53
17 19 22 15 8 7 7 11 20 29 30 25 22 21 16 15 16 13 11 10 10 18 19 8 12 29 36 36 38 34 29 31 36 40 44 45 45 45 45 47 48 48 49 49 49 49 49 48 47 46 45 43 42 41 40 39 39 39 39 39 39 40 40 41 42 43 44 45 46 47 48 48 49 49 50 50 50 51 51 51 52 52 52 53 53 53
17 19 21 18 12 8 8 11 16 21 25 25 23 18 15 15 17 17 13 10 13 19 16 12 22 35 38 39 39 35 32 34 38 43 46 46 47 48 49 50 50 49 49 49 49 49 48 47 45 44 44 43 42 41 40 39 38 38 38 39 39 40 41 42 43 44 45 46 47 48 49 49 49 50 50 50 51 51 52 52 52 52 53 53 53 53
18 19 21 20 15 9 10 15 17 19 23 24 20 15 14 16 19 21 16 12 16 16 15 22 30 35 39 41 38 35 34 36 41 47 47 48 51 52 51 50 50 50 50 49 48 47 46 45 44 43 42 41 41 40 39 38 38 38 39 39 40 41 42 43 44 45 46 47 48 49 49 49 50 50 51 51 51 52 52 52 52 52 52 52 53 53
20 20 21 20 13 9 13 17 18 19 19 18 16 13 15 19 23 23 17 16 21 19 20 33 38 37 43 44 39 37 37 41 48 50 50 52 54 53 51 51 51 50 49 47 46 45 44 44 42 42 41 41 40 39 38 38 38 39 39 40 41 42 43 45 46 47 48 48 49 49 49 50 50 50 51 51 51 51 51 52 52 52 52 52 52 52
21 20 21 20 13 11 17 20 18 17 14 13 13 13 18 22 23 21 18 19 24 26 29 38 42 43 45 43 40 39 41 47 51 51 51 52 52 51 51 50 50 49 48 46 45 44 43 42 41 40 40 40 39 38 38 38 39 40 40 41 42 43 45 46 47 48 48 49 49 50 50 50 50 50 51 51 51 51 51 51 51 51 51 51 51 52
22 21 22 22 18 15 20 23 17 12 11 11 10 14 21 23 19 17 18 21 26 31 35 39 43 45 42 39 39 41 44 49 50 50 51 50 48 49 49 48 48 47 45 45 44 43 42 41 40 40 39 39 38 38 38 38 39 40 41 42 43 44 46 47 47 48 48 49 49 50 50 50 50 50 50 50 51 51 50 50 51 51 51 51 51 51
23 23 23 24 21 19 23 24 17 12 11 9 11 18 24 23 20 19 21 23 28 34 37 40 43 41 37 38 41 43 47 49 50 50 50 48 47 47 46 46 45 44 43 43 42 42 41 40 39 39 39 38 38 38 39 39 40 41 42 43 44 45 46 47 47 48 47 48 48 49 49 50 50 50 50 50 50 50 50 50 50 50 50 50 50 50
24 24 24 23 22 22 24 25 19 11 8 9 15 23 24 22 23 23 25 27 30 34 38 41 40 36 36 40 45 48 50 50 50 50 48 47 47 46 45 45 44 43 43 42 42 41 40 38 38 38 38 38 38 39 40 40 41 42 43 44 45 46 47 47 47 47 47 47 48 49 49 50 50 50 49 49 49 49 49 49 49 49 50 50 49 49
22 23 22 20 20 22 24 27 20 6 4 12 21 22 21 22 24 27 31 33 33 37 40 38 36 36 40 45 48 51 51 50 49 49 47 47 47 46 45 44 44 44 44 42 42 40 38 37 36 36 37 38 39 39 40 40 41 42 43 44 45 46 46 46 46 46 47 47 48 49 49 49 49 49 49 49 49 48 48 49 49 49 49 49 49 48
21 22 21 20 19 20 25 26 15 4 9 18 19 19 20 23 26 31 37 37 38 42 40 34 35 40 45 48 49 50 50 49 48 48 46 46 46 46 46 45 45 45 44 42 41 38 36 36 36 37 38 39 39 40 40 41 42 42 43 44 45 45 46 46 46 46 47 47 48 48 49 49 49 49 49 49 48 48 48 48 48 48 48 48 48 47
21 20 20 21 18 18 21 18 8 10 18 18 14 17 21 23 28 36 42 44 44 42 36 35 41 47 49 49 49 49 50 50 48 46 45 45 46 46 46 46 45 44 43 41 39 37 36 36 37 38 39 40 41 41 41 42 43 43 44 45 45 45 45 46 46 46 46 47 47 48 48 49 49 49 48 48 48 47 47 47 47 47 48 48 47 46
21 20 20 19 16 16 19 19 18 20 18 13 14 17 20 26 30 34 43 50 45 36 35 41 48 50 49 50 50 48 49 51 48 46 45 46 46 46 46 45 44 42 41 39 38 37 37 37 38 40 40 41 41 42 43 43 43 44 44 45 45 45 45 45 45 45 46 46 47 47 47 48 48 48 48 47 47 46 46 46 46 47 47 47 46 45
21 20 19 17 16 17 17 18 18 14 10 12 18 20 23 28 30 34 46 49 39 33 40 48 49 50 50 49 49 48 49 51 50 46 45 46 45 45 44 43 42 40 39 38 37 37 37 38 39 39 40 41 42 42 43 43 43 44 44 44 45 44 44 44 44 45 45 45 46 46 46 46 47 47 47 46 46 46 45 46 46 46 47 47 46 44
20 20 19 16 17 17 13 10 7 6 9 16 22 24 27 31 35 39 41 39 36 39 47 50 48 48 49 48 48 48 48 50 50 47 45 45 45 44 43 41 40 39 37 37 37 37 38 38 39 39 40 41 42 43 43 43 43 44 44 44 44 44 44 44 44 44 45 45 45 45 45 46 46 46 46 46 46 45 45 46 46 46 46 46 45 44
21 21 19 18 20 20 15 12 11 12 16 20 22 25 30 36 40 32 22 28 42 48 48 48 48 47 47 46 46 46 46 48 50 48 45 44 43 42 41 39 38 37 37 37 37 38 38 38 39 39 40 41 43 43 44 44 44 43 44 44 44 43 43 43 43 44 44 44 44 44 44 45 45 45 45 45 45 45 45 46 46 45 45 44 43 42
24 22 21 21 24 22 17 17 20 22 21 20 23 29 35 38 35 25 22 36 50 50 46 47 47 46 46 45 46 46 45 46 48 47 45 43 42 40 38 37 36 36 36 37 38 39 39 38 38 39 40 41 43 43 44 44 44 43 44 44 44 43 43 43 43 43 43 43 43 42 43 43 43 44 44 44 44 44 44 45 45 44 44 43 42 41
23 23 23 24 24 23 21 21 23 23 24 26 31 36 37 34 33 34 40 47 49 46 47 47 45 45 46 46 46 46 45 45 45 45 44 42 41 39 37 36 36 36 37 37 38 39 39 39 39 39 40 41 43 43 44 44 44 43 43 43 43 42 42 41 41 41 41 41 41 41 41 42 42 42 43 43 43 43 43 43 43 42 42 42 41 40
21 22 23 24 23 21 20 17 15 18 28 35 37 38 37 36 39 44 48 47 46 46 47 46 45 46 46 47 47 46 46 45 44 44 43 42 40 39 37 36 37 37 38 38 38 39 40 39 39 39 40 41 42 43 44 44 44 43 43 42 42 42 41 41 40 40 40 40 39 40 40 40 40 41 41 42 42 43 43 43 42 40 40 40 40 39
20 21 22 24 21 18 17 16 16 24 33 37 36 37 39 41 42 45 46 47 47 46 46 47 48 47 47 48 49 47 46 45 44 43 43 41 40 39 37 37 37 38 38 39 39 40 40 40 40 40 40 41 42 43 43 44 44 43 42 42 42 41 41 40 39 39 39 39 39 39 39 39 40 40 40 41 41 42 42 42 41 40 39 39 39 38
23 24 25 26 25 23 25 28 31 33 35 36 38 39 40 41 42 44 45 47 47 46 47 49 49 47 47 48 48 48 47 45 44 43 42 41 40 39 38 38 38 39 39 39 39 40 40 40 40 40 40 40 41 42 42 43 44 44 42 42 42 41 40 40 39 39 38 38 38 38 39 39 39 39 40 40 41 41 41 41 41 39 38 38 37 37
27 27 27 30 30 32 34 36 36 38 39 39 40 39 39 41 43 44 45 47 48 48 48 48 48 48 48 47 48 48 46 45 44 43 42 41 40 39 39 39 39 39 40 40 40 40 39 40 40 40 40 40 40 41 41 42 43 44 43 42 41 41 40 39 39 38 38 38 38 38 39 39 39 39 39 39 40 40 40 40 40 39 38 38 36 36
28 29 30 32 33 35 38 38 38 41 42 40 39 39 39 42 44 45 47 48 48 48 48 48 48 48 47 47 48 47 46 45 44 43 42 41 40 40 40 40 40 40 41 41 40 40 40 40 41 41 41 40 40 41 41 41 42 43 43 42 41 41 40 39 39 38 38 39 39 39 39 39 39 39 39 38 39 39 38 38 39 38 38 37 36 35
29 31 32 34 35 38 41 40 40 43 44 41 40 40 41 44 46 47 48 48 48 48 48 48 48 48 48 47 47 47 46 45 43 43 43 41 40 40 40 40 41 41 41 41 42 41 41 41 41 42 41 41 41 41 40 41 42 43 43 42 41 41 40 39 39 38 38 38 39 39 39 39 39 39 39 39 38 38 37 37 37 37 37 36 36 36
30 32 32 35 39 42 42 41 42 46 47 44 41 42 44 46 48 48 48 48 48 48 49 49 49 48 48 47 47 47 47 44 43 43 43 41 41 41 40 41 41 41 42 43 43 42 42 42 42 42 42 42 41 41 40 40 41 42 43 42 41 41 40 40 39 38 38 38 39 39 39 39 39 39 39 39 38 37 36 35 36 37 36 35 34 34
31 33 34 36 40 42 42 42 43 47 48 46 43 44 46 46 47 49 49 49 49 49 50 50 50 49 49 48 47 47 47 45 43 43 42 41 41 41 41 41 41 42 42 43 43 43 42 42 42 42 42 42 42 41 40 40 41 42 42 41 41 41 40 40 39 38 38 38 39 39 39 39 39 39 39 38 38 38 35 32 32 33 35 36 33 31
33 35 36 37 40 43 43 42 43 47 49 47 45 46 46 46 48 50 50 49 50 50 50 51 51 50 50 49 47 47 47 45 44 43 43 42 41 41 42 42 42 42 43 43 44 43 42 42 42 42 42 42 42 41 40 40 41 42 42 41 40 40 40 40 40 39 38 38 39 38 39 39 39 39 39 38 38 38 37 34 29 27 29 32 33 30
Wind_Direction
307 308 310 305 300 297 295 295 294 293 294 294 293 293 294 294 296 303 302 296 294 291 288 286 284 283 283 281 277 274 272 270 268 267 268 269 270 269 265 259 255 251 247 243 241 240 240 240 242 243 243 243 241 238 237 235 235 236 237 239 242 244 248 251 256 260 263 265 268 271 273 276 278 280 282 284 287 289 291 293 294 294 294 294 294 293
312 313 312 304 300 299 297 296 296 296 296 295 296 297 298 299 303 308 304 299 298 291 289 289 287 285 283 281 280 278 275 274 273 274 273 272 269 265 259 253 250 247 242 239 237 236 236 237 238 239 238 237 234 232 231 232 233 235 237 240 244 247 252 257 261 264 267 270 272 274 276 277 280 282 283 286 288 290 292 293 293 293 293 293 293 292
317 316 312 307 306 305 303 304 302 301 300 300 302 301 302 307 309 308 306 304 302 295 291 291 288 285 283 283 282 281 279 278 278 277 275 271 264 257 251 248 246 243 239 235 234 234 235 235 234 233 232 230 229 228 229 232 234 237 240 244 249 254 258 263 267 270 273 276 278 279 281 282 284 286 287 289 291 292 293 293 293 293 293 293 293 292
325 322 320 318 317 314 312 312 309 307 306 307 307 305 307 312 313 308 308 307 302 296 292 292 288 284 283 283 282 280 280 280 279 275 269 260 251 245 241 241 241 239 238 236 234 233 233 232 230 228 226 226 227 229 231 234 238 242 246 252 257 262 267 271 274 277 279 280 282 284 286 288 290 292 293 294 294 295 295 294 294 294 294 294 293 293
335 336 333 329 325 321 320 320 318 316 316 319 318 314 314 318 316 309 308 307 302 297 295 293 288 281 279 279 278 278 279 278 274 266 254 241 233 231 232 233 233 233 234 235 233 232 229 227 225 223 224 226 229 232 235 240 245 251 257 262 268 272 276 279 280 282 284 285 286 287 289 291 293 294 294 294 294 294 294 294 293 293 292 292 291 290
350 344 336 332 328 325 327 329 329 327 326 329 327 322 320 321 318 311 307 306 303 302 301 297 286 280 279 276 275 278 278 273 265 251 234 224 220 222 226 228 227 226 226 227 228 228 226 225 224 224 227 231 235 239 244 250 256 263 269 273 277 281 283 285 287 288 289 289 290 290 291 291 291 291 291 291 291 291 291 291 291 290 290 289 288 286
351 343 336 332 329 329 336 339 339 336 331 331 330 324 320 318 316 310 306 304 300 299 298 288 267 277 284 280 275 275 274 266 249 229 218 214 214 217 221 224 225 224 225 225 226 226 227 227 228 230 233 238 243 249 255 262 269 275 280 283 286 288 289 291 292 293 293 293 293 293 293 293 293 293 293 293 294 294 294 293 293 291 290 288 286 284
347 343 338 336 337 343 348 346 345 342 334 330 326 320 318 316 314 310 306 300 293 292 290 281 263 268 279 275 269 263 256 246 225 211 207 208 211 214 218 222 223 225 226 227 228 229 230 231 233 237 241 247 253 260 267 274 281 285 289 292 293 294 296 297 298 298 298 298 297 297 297 298 298 298 298 298 297 297 296 295 294 292 290 288 285 284
348 346 343 348 359 357 352 350 348 341 332 326 323 321 320 318 313 309 304 296 293 292 291 287 262 256 270 256 248 244 232 224 210 203 203 204 208 212 217 220 223 225 227 228 230 231 234 237 241 246 251 258 265 272 279 285 290 295 298 300 301 303 304 304 304 304 303 303 302 302 302 302 302 302 301 300 298 297 296 294 293 291 289 287 285 284
355 354 358 11 7 355 349 347 341 335 331 327 328 328 324 318 313 309 301 294 294 286 287 295 249 223 269 254 236 227 220 216 206 201 201 203 206 210 214 218 221 224 226 229 231 234 238 242 247 254 262 270 277 283 290 296 301 304 307 309 310 310 310 309 308 308 307 307 307 306 306 305 304 302 300 299 298 296 295 293 292 290 289 287 286 284
5 9 27 13 358 351 346 342 340 339 340 339 335 329 322 320 318 309 299 295 302 278 288 324 247 217 264 276 238 227 222 221 215 207 205 206 208 210 214 217 220 222 226 230 234 237 241 247 254 265 274 282 290 296 302 306 309 312 313 314 315 314 313 311 311 311 310 310 309 308 307 305 303 301 300 298 297 295 293 291 289 288 287 286 285 284
16 27 24 2 354 349 344 346 349 350 349 341 333 332 330 330 327 309 297 306 306 270 339 2 334 221 237 279 248 233 231 228 223 220 216 214 214 215 217 220 223 226 230 234 238 242 248 257 268 279 288 296 303 307 310 312 314 316 317 317 317 316 315 314 313 313 312 311 310 308 306 304 302 301 299 298 296 293 291 290 288 287 286 285 285 285
18 29 9 357 354 352 351 352 352 348 346 342 343 353 351 341 339 322 298 315 252 269 340 350 342 255 250 274 270 246 238 228 222 224 225 222 221 221 222 225 228 231 235 239 245 252 262 273 284 293 300 306 310 313 315 316 318 319 319 319 318 317 317 316 315 314 313 311 309 307 305 303 301 300 298 296 295 293 292 291 290 289 288 287 287 287
13 17 1 355 356 1 357 352 348 345 348 354 359 360 358 352 348 326 293 313 289 294 314 315 311 288 269 280 283 258 240 230 224 224 227 228 227 226 228 229 232 235 240 248 258 271 282 291 298 304 309 312 315 318 319 320 321 321 321 320 319 318 318 316 315 314 312 310 308 306 304 302 300 298 297 295 294 294 293 293 292 292 292 291 290 290
11 359 352 355 2 4 353 348 348 347 351 359 357 355 357 4 349 300 289 313 300 302 308 308 295 273 279 286 284 268 246 235 231 229 230 231 231 231 232 233 237 242 251 265 281 293 301 305 309 313 316 319 321 322 323 323 324 323 322 321 319 318 317 316 314 312 311 309 307 305 302 300 299 297 296 295 295 295 295 295 295 295 295 294 293 293
359 344 352 3 7 357 350 352 355 354 358 359 358 360 353 341 318 282 286 295 297 308 313 308 262 271 284 282 279 272 254 241 234 233 232 231 232 233 235 240 249 261 275 291 301 308 313 316 319 320 322 324 324 324 325 326 325 323 321 320 319 317 316 314 313 310 308 306 303 301 299 298 297 296 296 296 296 296 296 296 296 296 296 296 296 295
346 347 7 18 4 355 355 2 6 10 14 7 5 5 350 339 323 297 292 298 308 315 305 300 286 292 296 289 282 268 251 241 233 233 232 231 233 237 246 260 277 292 303 311 316 319 321 323 324 324 324 324 324 324 325 325 323 321 320 318 317 316 314 312 310 307 305 303 301 299 298 298 297 297 298 298 298 299 299 299 299 299 298 298 298 297
345 348 17 17 1 360 5 10 23 28 18 10 9 3 352 353 355 340 318 309 329 308 287 299 293 297 305 293 283 267 246 237 232 233 233 235 243 256 278 296 307 314 319 322 323 324 324 324 324 323 323 323 323 324 323 322 321 319 318 317 315 313 312 310 307 305 304 302 301 300 300 300 300 300 300 300 300 300 300 300 300 300 300 299 299 298
352 342 10 13 5 7 12 13 25 21 9 6 6 359 358 1 333 336 333 312 324 300 288 300 301 313 329 302 292 276 244 232 232 237 241 249 263 282 304 316 321 323 324 323 323 323 322 322 321 321 322 322 323 322 320 320 319 317 316 314 313 311 310 308 307 306 305 303 303 302 302 302 302 302 302 301 301 301 301 302 301 301 301 300 300 299
5 348 356 7 9 12 14 21 22 6 357 1 3 0 5 7 332 328 323 298 295 300 303 313 321 353 13 337 316 276 238 235 240 248 257 271 289 307 317 322 323 323 322 321 321 321 320 320 320 321 321 321 320 319 318 318 317 315 314 312 311 310 309 308 307 306 305 304 304 303 303 303 303 303 303 304 304 304 304 304 304 303 303 302 302 301
15 9 352 0 13 20 24 29 20 2 356 1 5 6 5 358 345 333 318 303 292 288 306 322 325 24 15 358 346 304 254 249 253 267 290 306 315 320 321 321 321 319 319 319 319 318 319 319 320 320 319 318 317 316 315 315 314 313 312 311 310 309 308 307 306 304 304 304 304 304 304 305 305 306 306 306 307 307 307 306 306 305 305 304 303 302
17 13 358 0 13 24 37 25 5 356 357 2 5 6 1 354 351 341 314 316 311 297 310 315 292 30 13 5 359 343 308 281 283 304 319 323 322 322 321 320 319 318 318 318 318 318 318 318 317 316 315 314 313 313 313 313 312 311 310 309 309 308 307 306 305 305 305 305 306 306 307 307 308 308 308 308 308 308 308 307 307 306 305 305 304 304
16 11 2 5 15 24 33 359 352 352 356 359 359 359 358 359 356 345 317 323 321 323 335 324 276 6 2 360 357 351 341 322 320 327 328 326 324 323 321 320 319 318 318 318 317 316 315 313 313 312 311 311 311 312 312 311 311 310 309 309 308 308 307 307 307 307 308 308 309 309 309 309 310 310 310 310 309 309 309 308 308 307 306 306 305 305
18 11 4 5 13 18 5 345 348 351 354 356 357 358 359 2 359 355 0 344 330 343 347 328 257 341 348 349 345 341 338 330 329 329 328 327 324 322 321 319 319 318 316 315 314 312 311 311 311 311 311 311 311 311 311 310 310 310 310 310 309 309 309 309 309 310 310 310 310 311 311 311 311 311 311 311 310 310 310 309 309 308 308 307 306 306
23 18 10 8 8 6 356 348 347 349 354 356 356 0 3 2 0 5 16 6 347 352 350 335 281 327 337 341 339 334 329 325 327 327 326 325 322 321 319 317 316 315 314 313 312 312 312 312 313 313 313 312 312 313 313 312 313 313 312 312 311 311 311 311 311 311 312 312 311 312 312 312 312 312 312 312 311 311 311 310 310 310 309 308 308 307
27 21 18 23 19 354 335 335 337 339 345 346 345 353 359 357 1 3 6 7 348 343 347 341 313 323 331 337 335 331 325 322 324 324 323 322 320 319 318 317 316 315 315 315 315 315 315 315 315 315 315 315 315 316 316 316 315 315 314 313 312 312 312 313 313 313 313 313 313 313 313 313 313 313 313 313 312 312 312 312 311 311 311 310 309 309
27 19 20 24 19 360 333 335 337 334 335 335 336 343 346 349 352 347 353 10 355 339 329 322 324 323 327 334 332 328 324 320 320 321 321 320 319 320 320 319 319 319 320 320 320 319 317 317 317 317 317 317 317 317 317 317 316 315 314 314 314 314 314 314 315 315 315 315 315 315 315 315 315 315 314 314 314 314 314 313 313 313 312 312 311 310
22 16 19 22 20 11 352 350 347 337 331 331 331 331 333 338 335 335 346 1 354 340 314 321 329 323 324 331 330 325 322 318 319 321 321 320 320 322 323 322 321 322 323 322 321 319 318 318 319 318 318 317 317 317 317 317 316 315 315 315 316 316 316 316 316 316 316 316 316 316 316 316 316 316 316 316 316 316 315 315 315 314 313 313 312 311
19 14 13 18 25 12 358 357 348 337 332 329 327 324 327 330 327 328 337 341 340 335 319 326 330 323 324 329 327 323 322 321 322 323 322 321 321 322 323 323 324 324 323 321 320 319 319 320 320 319 318 317 317 317 316 316 315 316 316 317 318 318 318 318 318 318 318 318 318 318 318 318 318 318 318 318 317 317 317 316 316 315 314 313 313 312
18 12 9 13 18 5 1 3 352 337 331 326 325 326 325 324 321 320 324 327 328 325 323 326 325 320 323 325 323 322 322 321 323 322 321 320 320 321 323 323 323 322 321 321 320 320 320 320 320 319 317 317 317 316 316 316 317 318 318 319 319 319 320 319 319 320 320 320 320 320 320 319 319 319 319 319 318 318 318 317 316 316 315 314 313 313
16 13 10 8 9 5 1 3 357 340 333 327 320 322 324 321 317 318 320 321 321 320 321 323 320 318 322 322 320 320 320 320 321 320 319 319 320 321 322 322 321 320 320 320 320 320 321 320 320 318 317 316 316 316 316 317 318 319 320 320 320 320 320 320 320 321 321 321 320 320 320 320 320 320 320 320 319 319 318 317 317 316 315 314 313 312
17 14 9 5 6 4 357 357 358 344 329 322 315 323 328 324 318 318 318 318 320 321 321 321 319 320 323 321 319 319 320 321 320 319 319 320 321 322 321 319 319 319 320 320 320 321 321 320 319 318 317 317 317 317 318 319 320 321 321 321 321 321 321 321 321 321 321 321 321 320 320 320 321 321 321 320 320 319 318 317 317 315 314 314 313 313
15 11 7 3 358 355 354 353 351 340 321 320 327 329 329 323 317 314 314 317 319 321 322 321 320 322 323 321 321 322 322 321 319 319 320 322 322 322 320 320 320 321 322 322 321 321 321 320 319 317 317 317 317 318 320 320 321 322 322 322 322 321 322 322 322 322 322 322 322 321 321 321 322 321 321 320 320 319 318 317 317 315 315 314 314 314
12 7 6 1 349 347 349 347 346 348 320 327 331 329 323 318 314 311 313 316 319 322 324 322 321 323 324 324 324 322 320 319 318 320 323 323 323 321 321 322 322 323 323 322 321 321 320 319 318 316 316 317 318 319 320 321 322 322 323 322 322 322 323 323 323 323 323 323 322 322 322 322 322 321 321 320 320 320 319 318 317 316 315 315 315 316
7 3 2 358 348 341 344 348 356 358 317 322 324 323 321 319 315 311 312 317 323 326 326 322 322 326 326 324 322 319 319 319 319 322 324 323 322 321 322 323 324 323 323 321 321 321 321 319 318 318 318 318 319 320 321 322 323 323 323 323 323 323 324 324 324 323 323 323 323 323 323 322 322 321 321 321 321 320 319 318 317 317 316 316 317 318
2 0 359 355 349 341 340 343 339 312 317 321 319 320 321 319 317 317 318 323 328 328 324 324 327 327 325 322 321 321 320 319 320 324 325 324 323 323 323 323 323 322 321 321 321 321 321 320 319 319 319 320 321 321 322 323 324 324 324 324 324 324 324 324 324 324 323 324 323 323 323 322 322 322 322 321 321 320 319 318 317 317 316 317 317 319
358 356 355 353 349 343 334 324 316 317 322 326 322 320 318 316 317 318 318 323 328 327 325 328 328 324 323 322 322 322 320 319 322 327 327 324 323 322 322 321 321 320 320 320 321 321 320 320 320 320 320 320 321 322 322 323 324 324 324 324 324 325 324 324 324 324 324 324 324 323 323 322 323 322 322 322 321 320 320 319 318 318 317 318 318 320
355 352 352 348 342 339 330 321 323 325 322 323 321 318 317 316 318 317 314 317 326 329 326 327 325 322 323 323 321 321 321 320 324 328 327 324 322 321 321 320 320 320 320 319 319 320 319 319 320 320 320 320 321 321 322 323 324 324 325 325 324 324 324 324 324 324 324 324 324 324 324 324 324 323 323 322 322 322 321 320 320 319 319 319 320 321
352 350 348 343 337 335 324 305 292 275 294 313 314 314 316 317 318 317 313 315 324 327 324 324 323 321 321 320 320 322 322 320 323 327 326 323 321 321 320 320 319 318 318 318 318 319 319 319 319 319 319 320 320 321 322 323 323 324 325 324 324 324 324 324 324 325 325 325 325 326 326 326 325 324 324 324 324 324 323 321 321 320 320 321 321 321
351 349 346 340 336 332 321 300 286 288 305 312 309 311 316 317 318 317 311 314 321 323 321 321 320 320 320 320 320 321 320 319 322 325 325 321 320 320 319 318 317 317 317 318 318 317 318 319 319 319 319 320 320 321 322 322 324 325 325 325 324 324 324 325 325 326 326 326 327 327 327 327 326 326 326 325 325 325 324 322 322 321 321 321 321 321
349 348 344 340 337 332 320 303 301 309 318 316 310 313 317 317 317 313 306 313 318 319 319 319 318 319 320 320 320 321 322 322 322 322 323 321 319 319 318 316 316 316 317 317 317 317 318 318 319 319 319 320 320 321 322 323 324 325 326 325 325 324 324 325 325 326 326 326 328 328 327 327 327 328 328 327 326 326 324 323 322 322 322 321 321 321
345 343 340 338 335 329 319 309 309 318 327 324 317 316 318 318 315 312 312 314 317 317 318 318 318 321 322 321 322 323 324 323 322 321 321 320 319 318 318 316 316 316 316 317 316 317 317 318 319 320 320 320 321 321 322 323 324 326 326 325 324 324 324 324 325 326 326 327 328 328 328 329 329 329 329 328 327 326 325 324 323 322 322 321 320 320
340 337 333 333 332 325 315 310 311 319 324 323 318 317 319 318 315 314 314 315 316 317 317 318 321 323 323 323 323 324 324 323 322 321 321 320 318 318 318 317 316 317 317 317 317 317 318 318 319 320 321 321 321 322 323 323 324 325 325 324 324 323 323 324 325 326 326 327 328 328 328 329 331 331 331 330 329 327 326 324 324 323 323 321 320 321
337 332 325 325 327 318 304 308 318 319 319 320 318 318 319 318 315 313 314 315 317 319 320 321 324 325 324 323 323 324 324 323 322 321 320 319 318 318 317 317 317 317 317 317 317 318 318 319 319 320 321 321 321 322 323 323 324 325 325 324 323 323 323 324 324 325 326 327 327 328 328 330 331 332 332 331 330 329 327 325 325 324 324 322 321 321
334 333 326 322 323 316 315 324 329 326 323 322 322 321 321 318 315 313 314 316 319 322 323 323 324 324 324 323 322 323 324 323 322 321 320 319 319 318 317 318 318 317 317 317 317 318 318 318 319 320 321 321 321 322 323 323 323 324 325 324 323 323 323 323 324 325 325 326 327 327 328 329 331 332 332 332 331 330 329 327 326 326 325 323 322 322
333 333 328 327 326 322 327 335 334 328 328 327 326 325 322 317 316 317 319 321 323 324 324 323 323 323 323 322 321 322 323 323 322 321 320 319 319 318 318 318 318 318 317 317 317 318 318 318 319 319 321 321 321 322 323 323 323 324 325 324 323 322 322 322 323 324 325 325 326 326 327 328 330 331 331 332 332 331 331 330 329 328 327 325 324 323
334 333 329 329 325 321 329 338 334 327 329 331 329 327 323 319 320 322 323 324 324 324 323 322 322 322 322 321 321 321 323 323 321 320 320 319 319 318 318 318 318 318 318 318 318 319 319 319 319 320 321 322 322 323 324 323 323 323 324 324 323 322 322 322 323 323 323 324 324 325 327 328 328 329 330 331 331 332 332 332 331 330 328 326 325 324
332 332 330 328 324 322 329 337 333 327 330 333 332 329 325 324 325 325 324 324 324 323 323 322 322 321 321 321 321 321 322 323 321 319 319 319 319 319 319 318 319 319 319 318 319 320 320 320 320 320 321 322 322 323 324 324 323 323 323 324 323 322 322 322 322 322 322 322 323 324 326 327 327 328 329 330 330 331 332 333 332 331 329 327 326 325
330 331 329 326 325 328 333 335 331 328 332 336 334 330 328 328 327 325 325 325 324 324 323 323 322 322 321 322 322 321 322 322 320 318 319 319 319 318 318 319 319 319 319 319 320 320 321 321 321 321 321 322 322 324 324 324 323 322 323 324 323 322 322 322 322 322 322 321 322 323 324 326 326 327 328 329 329 331 333 334 334 332 330 329 329 328
331 332 332 328 326 330 335 334 330 328 332 336 335 330 329 329 326 325 326 326 325 325 324 323 323 323 322 322 322 321 321 322 320 318 318 319 319 318 318 319 320 320 320 319 319 320 321 321 321 321 321 321 322 324 325 324 323 322 323 324 323 323 323 322 322 322 322 321 322 323 323 324 326 327 328 329 329 329 331 334 336 334 332 329 329 328
333 333 333 330 327 329 334 333 329 328 331 335 334 331 330 330 326 326 327 327 326 326 325 324 324 323 322 322 321 320 321 321 319 319 319 319 319 319 319 320 320 320 320 319 319 320 321 321 321 321 320 321 322 324 324 324 322 321 323 324 324 323 323 323 322 323 323 322 322 322 323 324 325 326 328 328 329 329 330 331 334 336 333 329 326 325
Height
3116 3115 3114 3113 3112 3111 3110 3108 3107 3106 3105 3103 3102 3101 3100 3098 3096 3097 3097 3094 3094 3092 3089 3089 3087 3085 3084 3084 3084 3084 3083 3082 3081 3080 3079 3077 3076 3074 3073 3072 3071 3071 3070 3070 3070 3071 3071 3072 3072 3072 3072 3072 3072 3072 3072 3073 3073 3072 3072 3072 3072 3071 3071 3071 3070 3070 3069 3068 3068 3067 3066 3065 3064 3063 3062 3061 3059 3058 3056 3055 3053 3052 3050 3049 3047 3045
3114 3113 3112 3111 3110 3109 3108 3107 3105 3104 3103 3102 3101 3099 3097 3096 3094 3094 3093 3092 3091 3090 3087 3086 3084 3082 3081 3080 3081 3081 3080 3078 3077 3076 3075 3074 3073 3071 3070 3069 3068 3068 3067 3068 3068 3069 3069 3070 3070 3070 3070 3070 3070 3070 3070 3070 3070 3070 3070 3070 3069 3069 3068 3068 3067 3066 3065 3064 3063 3062 3061 3060 3059 3058 3057 3056 3055 3053 3052 3050 3048 3047 3045 3043 3041 3040
3112 3111 3110 3109 3108 3107 3106 3105 3104 3103 3101 3100 3099 3097 3095 3094 3093 3091 3090 3089 3089 3087 3085 3084 3082 3079 3077 3077 3077 3076 3075 3074 3073 3072 3071 3070 3070 3069 3067 3066 3065 3065 3065 3066 3067 3067 3068 3068 3068 3068 3068 3068 3068 3069 3069 3068 3068 3068 3067 3067 3067 3066 3065 3064 3063 3062 3061 3060 3059 3058 3057 3056 3055 3054 3052 3051 3049 3048 3046 3045 3043 3041 3039 3037 3035 3033
3110 3109 3109 3108 3107 3106 3105 3104 3102 3101 3100 3099 3097 3096 3094 3093 3092 3089 3088 3088 3087 3085 3083 3082 3080 3076 3074 3073 3073 3071 3071 3071 3070 3069 3068 3068 3067 3066 3065 3064 3064 3064 3065 3065 3066 3066 3066 3066 3066 3066 3067 3067 3067 3067 3067 3066 3066 3065 3065 3064 3063 3062 3061 3060 3059 3058 3057 3056 3055 3053 3052 3051 3049 3048 3047 3045 3043 3042 3040 3038 3036 3034 3032 3030 3028 3025
3109 3108 3108 3107 3106 3105 3104 3103 3101 3099 3098 3097 3096 3094 3093 3092 3091 3089 3087 3086 3084 3082 3081 3080 3077 3072 3070 3070 3068 3068 3068 3068 3067 3067 3066 3066 3065 3064 3063 3063 3063 3064 3064 3065 3065 3065 3065 3065 3065 3065 3065 3065 3065 3065 3064 3064 3063 3062 3062 3061 3059 3058 3057 3056 3055 3053 3052 3051 3050 3049 3048 3046 3045 3043 3042 3040 3038 3037 3035 3033 3031 3028 3026 3024 3022 3019
3109 3108 3107 3106 3105 3104 3103 3101 3100 3098 3096 3096 3095 3094 3092 3091 3090 3088 3086 3084 3081 3079 3079 3079 3076 3070 3067 3067 3066 3066 3066 3066 3066 3065 3065 3064 3063 3063 3062 3062 3062 3063 3063 3064 3064 3064 3064 3064 3064 3064 3063 3063 3063 3062 3062 3061 3060 3059 3058 3057 3056 3054 3053 3051 3050 3049 3047 3046 3044 3043 3042 3041 3040 3038 3037 3035 3034 3032 3030 3028 3026 3023 3021 3018 3016 3014
3109 3108 3106 3105 3103 3102 3102 3100 3099 3097 3095 3095 3094 3093 3092 3090 3088 3086 3085 3083 3080 3078 3077 3078 3077 3071 3066 3065 3065 3065 3064 3064 3064 3064 3064 3063 3062 3062 3062 3062 3062 3062 3062 3063 3063 3063 3063 3063 3063 3062 3061 3061 3060 3060 3059 3058 3057 3056 3054 3053 3052 3050 3048 3047 3045 3044 3042 3040 3039 3037 3036 3034 3033 3032 3030 3028 3026 3024 3022 3020 3018 3016 3014 3011 3009 3007
3108 3107 3105 3104 3103 3102 3101 3100 3098 3097 3095 3094 3093 3091 3090 3088 3086 3084 3083 3081 3079 3077 3075 3075 3076 3072 3066 3064 3063 3063 3063 3063 3063 3063 3063 3063 3062 3061 3061 3061 3061 3062 3062 3062 3062 3062 3062 3061 3061 3060 3059 3059 3058 3057 3056 3055 3054 3052 3051 3049 3047 3046 3044 3042 3040 3038 3037 3035 3033 3032 3030 3028 3026 3024 3022 3020 3018 3016 3014 3012 3010 3009 3007 3004 3002 3001
3107 3105 3104 3103 3102 3102 3101 3099 3098 3097 3095 3093 3091 3089 3088 3086 3084 3082 3080 3079 3077 3075 3072 3071 3074 3072 3065 3062 3062 3063 3063 3063 3063 3063 3063 3062 3062 3061 3061 3061 3061 3061 3060 3060 3060 3060 3060 3059 3059 3058 3057 3056 3055 3054 3053 3052 3050 3049 3047 3045 3043 3041 3040 3038 3036 3034 3032 3030 3028 3026 3024 3022 3019 3017 3015 3013 3011 3009 3007 3005 3003 3001 3000 2998 2996 2994
3106 3105 3104 3103 3103 3102 3101 3100 3099 3097 3094 3092 3090 3088 3086 3084 3082 3080 3078 3076 3076 3074 3070 3069 3072 3071 3065 3061 3062 3063 3062 3062 3062 3062 3062 3062 3062 3061 3061 3061 3060 3060 3059 3059 3059 3058 3058 3058 3057 3056 3055 3054 3053 3051 3050 3048 3047 3045 3043 3041 3039 3037 3035 3033 3031 3028 3026 3024 3022 3019 3017 3015 3013 3011 3009 3006 3004 3002 3000 2999 2997 2995 2993 2992 2990 2989
3106 3105 3104 3104 3103 3102 3101 3100 3098 3096 3094 3091 3089 3087 3084 3082 3079 3077 3075 3075 3075 3073 3070 3069 3070 3070 3066 3062 3062 3063 3063 3063 3062 3062 3062 3061 3061 3060 3060 3060 3059 3059 3058 3058 3057 3057 3056 3056 3055 3054 3053 3051 3050 3048 3046 3044 3043 3041 3039 3037 3034 3032 3030 3027 3025 3023 3020 3018 3015 3013 3011 3008 3006 3004 3002 3000 2998 2996 2994 2993 2991 2990 2988 2986 2984 2983
3106 3105 3105 3104 3103 3102 3100 3099 3097 3096 3094 3091 3089 3085 3082 3080 3078 3075 3074 3074 3074 3072 3070 3070 3070 3071 3068 3064 3063 3064 3063 3064 3063 3062 3062 3061 3060 3060 3059 3059 3058 3058 3057 3057 3056 3055 3054 3054 3053 3051 3050 3048 3046 3044 3042 3040 3038 3036 3034 3031 3029 3026 3024 3021 3019 3017 3014 3012 3009 3007 3005 3002 3000 2997 2995 2993 2991 2990 2988 2986 2985 2983 2982 2980 2978 2976
3107 3106 3105 3104 3102 3101 3098 3096 3095 3094 3093 3090 3088 3085 3083 3080 3078 3076 3074 3075 3074 3072 3071 3071 3071 3070 3067 3065 3064 3064 3063 3064 3064 3063 3062 3061 3060 3059 3059 3058 3058 3057 3056 3055 3055 3054 3053 3052 3050 3049 3047 3045 3042 3040 3038 3035 3033 3030 3028 3025 3022 3020 3018 3015 3013 3011 3008 3006 3003 3001 2999 2996 2993 2991 2989 2987 2985 2983 2981 2979 2978 2976 2975 2973 2971 2969
3105 3105 3105 3104 3102 3101 3098 3095 3093 3091 3091 3089 3087 3087 3086 3085 3084 3081 3077 3076 3074 3072 3072 3072 3071 3069 3066 3065 3064 3063 3063 3063 3062 3062 3061 3060 3060 3059 3058 3057 3056 3056 3055 3054 3053 3052 3051 3049 3047 3045 3043 3040 3038 3035 3032 3030 3027 3024 3021 3019 3016 3014 3012 3009 3007 3004 3002 2999 2997 2994 2992 2990 2987 2985 2983 2981 2979 2977 2974 2972 2970 2968 2966 2965 2963 2962
3107 3106 3105 3104 3103 3102 3100 3097 3095 3093 3091 3091 3090 3090 3090 3090 3091 3087 3081 3078 3075 3072 3070 3070 3069 3067 3065 3065 3064 3063 3062 3062 3061 3061 3060 3059 3059 3058 3057 3056 3055 3054 3054 3053 3052 3050 3048 3046 3044 3041 3038 3035 3032 3029 3026 3023 3020 3018 3015 3013 3011 3008 3006 3003 3001 2998 2996 2993 2991 2989 2986 2984 2982 2980 2978 2975 2973 2971 2968 2966 2964 2961 2959 2957 2955 2954
3110 3109 3107 3106 3105 3103 3101 3098 3097 3094 3093 3092 3091 3091 3091 3091 3092 3089 3084 3081 3078 3074 3070 3068 3067 3066 3065 3064 3063 3063 3062 3060 3060 3059 3059 3058 3057 3056 3055 3055 3054 3053 3052 3051 3049 3047 3045 3042 3039 3035 3032 3029 3026 3023 3020 3016 3014 3012 3010 3007 3005 3002 3000 2997 2995 2992 2990 2988 2986 2984 2981 2979 2977 2974 2972 2970 2967 2965 2962 2960 2957 2955 2953 2950 2948 2946
3109 3109 3108 3107 3106 3103 3101 3099 3097 3095 3094 3093 3092 3091 3091 3090 3089 3087 3084 3081 3080 3077 3071 3067 3066 3065 3064 3064 3062 3062 3061 3060 3059 3058 3058 3057 3056 3055 3054 3053 3053 3052 3050 3048 3046 3043 3040 3036 3033 3030 3027 3024 3021 3017 3014 3011 3009 3006 3004 3002 2999 2997 2994 2992 2990 2987 2985 2983 2981 2978 2976 2974 2971 2969 2966 2963 2961 2958 2956 2953 2951 2948 2946 2943 2941 2939
3109 3108 3107 3106 3105 3103 3101 3100 3099 3097 3096 3094 3093 3092 3090 3089 3088 3087 3085 3081 3080 3078 3071 3067 3066 3065 3064 3064 3062 3061 3060 3060 3059 3058 3057 3056 3055 3055 3054 3053 3052 3050 3048 3045 3041 3038 3035 3032 3029 3026 3023 3020 3016 3013 3010 3007 3005 3002 2999 2996 2994 2991 2989 2987 2984 2982 2979 2977 2975 2972 2970 2968 2965 2962 2959 2957 2954 2952 2949 2947 2944 2942 2939 2937 2934 2932
3109 3107 3106 3105 3104 3102 3101 3100 3098 3097 3097 3096 3095 3093 3091 3090 3088 3087 3087 3084 3082 3078 3072 3067 3066 3066 3066 3066 3064 3063 3062 3061 3059 3057 3056 3056 3055 3055 3054 3053 3050 3047 3044 3041 3038 3035 3031 3028 3025 3022 3019 3015 3012 3009 3006 3003 3000 2997 2995 2992 2989 2986 2983 2981 2978 2976 2973 2971 2968 2966 2963 2961 2958 2955 2953 2950 2948 2946 2943 2940 2938 2935 2933 2931 2928 2925
3109 3107 3106 3105 3104 3101 3100 3099 3097 3096 3096 3096 3095 3093 3092 3093 3091 3089 3087 3086 3084 3080 3074 3069 3067 3067 3069 3068 3066 3066 3064 3061 3059 3058 3057 3057 3056 3056 3054 3052 3049 3045 3042 3038 3034 3031 3028 3024 3021 3017 3014 3010 3007 3004 3001 2999 2996 2993 2990 2987 2984 2981 2978 2976 2973 2970 2968 2965 2963 2960 2958 2955 2953 2950 2947 2944 2942 2939 2936 2933 2931 2928 2925 2923 2920 2918
3108 3108 3106 3105 3103 3101 3099 3098 3098 3097 3095 3093 3092 3092 3091 3092 3091 3089 3086 3085 3084 3081 3077 3074 3070 3069 3071 3069 3068 3066 3064 3062 3061 3060 3060 3059 3057 3055 3052 3049 3046 3042 3039 3035 3031 3027 3024 3020 3016 3012 3009 3006 3003 3000 2997 2994 2991 2988 2984 2981 2979 2976 2973 2971 2969 2966 2964 2961 2958 2956 2953 2950 2947 2944 2941 2938 2935 2932 2929 2926 2923 2920 2918 2915 2912 2909
3108 3108 3106 3103 3101 3100 3100 3100 3099 3098 3097 3094 3093 3092 3092 3091 3089 3088 3085 3084 3084 3082 3080 3077 3074 3071 3072 3070 3069 3068 3066 3064 3063 3062 3061 3059 3056 3052 3049 3046 3042 3038 3035 3031 3027 3023 3019 3016 3012 3009 3006 3002 2999 2996 2993 2990 2986 2983 2980 2977 2975 2972 2969 2967 2964 2962 2959 2956 2953 2950 2948 2945 2942 2939 2936 2933 2930 2926 2923 2920 2917 2914 2911 2908 2905 2902
3108 3107 3106 3104 3103 3102 3101 3100 3099 3098 3097 3095 3094 3093 3092 3090 3089 3088 3087 3084 3083 3082 3081 3078 3075 3072 3071 3070 3069 3068 3067 3065 3064 3062 3059 3056 3052 3049 3045 3041 3038 3034 3030 3026 3023 3019 3016 3013 3009 3006 3002 2999 2995 2992 2989 2985 2982 2979 2976 2973 2971 2968 2965 2962 2959 2957 2954 2951 2948 2945 2942 2939 2936 2933 2929 2926 2923 2920 2917 2914 2910 2907 2904 2901 2898 2895
3109 3107 3106 3104 3103 3102 3101 3100 3099 3098 3096 3094 3092 3092 3091 3090 3088 3088 3087 3085 3083 3082 3080 3077 3073 3070 3069 3069 3067 3066 3064 3062 3060 3058 3055 3052 3049 3045 3042 3038 3034 3030 3027 3023 3020 3016 3012 3009 3005 3001 2998 2994 2991 2987 2985 2981 2978 2975 2972 2969 2966 2963 2960 2957 2954 2951 2948 2945 2942 2939 2936 2933 2930 2926 2923 2920 2917 2913 2910 2907 2903 2900 2897 2894 2891 2887
3110 3109 3107 3104 3102 3100 3099 3097 3095 3093 3093 3092 3091 3090 3090 3089 3088 3086 3085 3084 3082 3081 3080 3078 3074 3070 3069 3067 3065 3062 3060 3058 3055 3053 3050 3047 3044 3040 3037 3034 3030 3027 3023 3020 3015 3011 3007 3003 2999 2996 2992 2989 2985 2982 2979 2976 2972 2969 2966 2963 2960 2957 2954 2952 2949 2946 2943 2940 2937 2934 2931 2927 2924 2921 2917 2914 2910 2907 2903 2900 2896 2893 2889 2886 2883 2879
3111 3110 3108 3107 3106 3105 3103 3100 3096 3092 3091 3091 3091 3090 3088 3087 3085 3084 3083 3082 3081 3079 3078 3078 3073 3068 3066 3065 3061 3059 3057 3054 3051 3049 3045 3042 3038 3035 3032 3028 3025 3021 3017 3013 3009 3005 3001 2997 2993 2989 2985 2982 2978 2975 2972 2969 2966 2963 2960 2957 2954 2952 2949 2946 2943 2940 2937 2934 2931 2928 2924 2921 2918 2914 2910 2907 2903 2900 2896 2893 2889 2886 2882 2878 2875 2871
3111 3111 3109 3108 3109 3108 3106 3104 3101 3097 3094 3092 3090 3089 3087 3085 3083 3082 3081 3081 3080 3077 3075 3075 3071 3064 3062 3061 3058 3055 3053 3050 3047 3044 3040 3036 3032 3029 3026 3022 3018 3014 3010 3006 3002 2997 2994 2990 2987 2983 2979 2976 2972 2969 2967 2964 2961 2958 2955 2953 2950 2947 2944 2941 2938 2935 2932 2928 2925 2921 2918 2914 2911 2907 2903 2900 2896 2892 2889 2885 2881 2878 2874 2870 2867 2863
3111 3110 3109 3108 3107 3106 3105 3103 3100 3097 3094 3091 3090 3088 3086 3085 3083 3081 3080 3079 3079 3076 3072 3070 3068 3062 3058 3057 3055 3052 3050 3046 3043 3039 3035 3031 3027 3024 3021 3016 3012 3008 3004 3000 2996 2992 2989 2985 2981 2978 2974 2971 2968 2965 2962 2960 2957 2954 2951 2948 2945 2942 2939 2936 2933 2929 2926 2922 2919 2915 2912 2908 2904 2900 2896 2893 2889 2885 2881 2878 2874 2870 2867 2863 2859 2856
3110 3109 3108 3107 3106 3105 3103 3101 3098 3095 3093 3090 3088 3087 3085 3083 3082 3080 3079 3077 3076 3075 3070 3065 3063 3059 3055 3053 3051 3048 3045 3042 3038 3034 3030 3026 3022 3018 3015 3011 3007 3003 2999 2995 2991 2988 2984 2980 2977 2973 2970 2967 2963 2961 2958 2956 2953 2950 2947 2943 2940 2937 2933 2930 2927 2923 2919 2916 2912 2908 2905 2901 2897 2893 2890 2886 2882 2878 2874 2871 2867 2863 2859 2856 2852 2848
3110 3108 3107 3106 3105 3103 3101 3099 3096 3093 3091 3089 3087 3085 3083 3082 3080 3078 3077 3075 3073 3071 3068 3063 3059 3055 3052 3050 3047 3044 3041 3037 3033 3030 3026 3023 3018 3014 3010 3006 3002 2998 2994 2990 2987 2983 2980 2976 2972 2969 2965 2962 2959 2956 2954 2951 2948 2945 2942 2938 2935 2931 2928 2924 2921 2917 2913 2909 2906 2902 2898 2894 2891 2887 2883 2879 2875 2871 2868 2864 2860 2856 2853 2849 2845 2841
3109 3107 3105 3104 3102 3101 3099 3097 3095 3092 3089 3087 3086 3084 3082 3080 3078 3076 3074 3072 3070 3067 3064 3061 3056 3052 3049 3047 3043 3041 3038 3033 3029 3026 3022 3019 3015 3010 3005 3001 2997 2993 2990 2986 2982 2978 2975 2971 2968 2964 2961 2958 2955 2952 2949 2947 2943 2940 2937 2933 2930 2926 2923 2919 2915 2912 2908 2904 2900 2896 2892 2889 2885 2881 2877 2873 2869 2865 2862 2858 2854 2850 2846 2843 2839 2836
3108 3106 3104 3102 3100 3098 3096 3094 3092 3089 3087 3085 3084 3082 3079 3076 3074 3073 3072 3070 3068 3063 3060 3057 3053 3048 3046 3043 3039 3036 3033 3029 3025 3021 3017 3014 3010 3006 3001 2997 2994 2990 2985 2981 2977 2974 2970 2967 2963 2959 2956 2953 2951 2948 2945 2942 2939 2935 2932 2928 2925 2921 2917 2914 2910 2906 2902 2898 2895 2891 2887 2883 2879 2875 2871 2867 2864 2860 2856 2852 2848 2844 2841 2837 2833 2830
3107 3105 3103 3101 3099 3097 3095 3092 3090 3087 3085 3083 3081 3079 3076 3073 3071 3069 3068 3067 3065 3062 3057 3053 3048 3045 3042 3039 3034 3030 3027 3024 3020 3016 3012 3008 3004 3000 2996 2992 2988 2984 2980 2977 2973 2969 2966 2962 2959 2955 2952 2949 2946 2943 2940 2937 2934 2930 2927 2923 2919 2916 2912 2908 2904 2901 2897 2893 2889 2885 2881 2877 2873 2870 2866 2862 2858 2855 2850 2847 2843 2838 2834 2831 2827 2823
3107 3105 3103 3101 3098 3095 3093 3089 3087 3085 3083 3081 3078 3076 3073 3071 3068 3065 3063 3063 3061 3059 3054 3049 3045 3042 3038 3034 3029 3025 3022 3019 3015 3011 3007 3003 2998 2994 2991 2987 2983 2979 2975 2971 2968 2965 2962 2958 2955 2952 2948 2945 2942 2939 2936 2933 2929 2926 2922 2918 2914 2910 2907 2903 2899 2895 2891 2887 2883 2879 2875 2872 2868 2864 2860 2857 2853 2849 2845 2840 2836 2832 2828 2824 2821 2817
3107 3105 3102 3100 3098 3094 3091 3088 3085 3083 3081 3079 3076 3074 3071 3069 3066 3061 3058 3058 3057 3053 3049 3046 3042 3038 3034 3030 3026 3022 3017 3014 3010 3006 3003 2999 2994 2989 2985 2981 2977 2973 2970 2966 2963 2960 2957 2954 2951 2947 2944 2941 2938 2934 2931 2928 2925 2921 2918 2913 2909 2905 2901 2898 2894 2890 2886 2882 2878 2874 2870 2866 2863 2859 2855 2851 2847 2843 2839 2835 2830 2826 2822 2819 2815 2811
3106 3104 3101 3099 3097 3093 3090 3089 3086 3082 3078 3076 3074 3071 3069 3067 3064 3059 3052 3050 3050 3048 3044 3040 3036 3033 3029 3026 3022 3017 3012 3007 3004 3002 2998 2993 2988 2984 2979 2976 2972 2969 2965 2961 2958 2955 2952 2949 2946 2942 2939 2936 2932 2929 2926 2923 2920 2916 2913 2908 2904 2900 2896 2893 2889 2885 2881 2877 2873 2869 2865 2861 2857 2854 2849 2846 2842 2838 2834 2830 2825 2821 2817 2814 2810 2807
3105 3103 3100 3098 3096 3094 3091 3088 3084 3078 3074 3073 3071 3069 3068 3065 3063 3058 3050 3044 3045 3044 3039 3035 3032 3028 3025 3021 3016 3012 3007 3001 2998 2996 2992 2987 2983 2979 2975 2971 2968 2964 2960 2957 2954 2951 2948 2945 2941 2938 2934 2931 2928 2924 2921 2918 2915 2911 2908 2904 2899 2895 2892 2888 2884 2881 2877 2873 2869 2865 2860 2856 2852 2848 2844 2840 2837 2833 2829 2824 2820 2815 2811 2808 2805 2802
3104 3102 3100 3098 3096 3094 3091 3087 3082 3077 3072 3070 3068 3067 3066 3063 3061 3058 3049 3041 3040 3040 3035 3032 3029 3024 3020 3016 3011 3008 3003 2995 2991 2990 2987 2981 2977 2974 2970 2966 2963 2959 2956 2953 2950 2947 2944 2941 2938 2934 2930 2927 2923 2920 2917 2914 2910 2907 2903 2899 2895 2891 2887 2884 2880 2876 2872 2868 2864 2860 2855 2851 2847 2843 2839 2835 2831 2827 2823 2819 2814 2810 2806 2802 2798 2796
3103 3101 3099 3097 3094 3093 3091 3089 3085 3079 3072 3069 3067 3065 3063 3060 3058 3055 3047 3038 3035 3035 3032 3028 3025 3020 3016 3012 3007 3003 2998 2990 2986 2985 2982 2977 2972 2969 2965 2961 2958 2955 2952 2949 2946 2943 2940 2937 2934 2930 2926 2922 2919 2916 2912 2909 2906 2902 2898 2894 2890 2886 2882 2879 2875 2871 2867 2863 2859 2854 2850 2846 2842 2838 2834 2830 2826 2821 2817 2813 2809 2805 2801 2797 2793 2790
3102 3099 3097 3095 3092 3090 3088 3086 3083 3077 3071 3068 3065 3063 3061 3057 3054 3052 3046 3036 3032 3031 3029 3024 3020 3016 3012 3008 3003 2999 2995 2988 2981 2979 2978 2973 2968 2965 2961 2957 2954 2951 2948 2945 2942 2939 2936 2933 2930 2926 2922 2918 2915 2911 2908 2905 2901 2897 2893 2889 2885 2881 2877 2874 2870 2866 2862 2858 2854 2850 2845 2841 2837 2833 2829 2825 2821 2817 2812 2808 2804 2800 2796 2792 2788 2785
3099 3097 3095 3092 3090 3088 3086 3083 3077 3072 3069 3066 3063 3061 3058 3054 3051 3048 3043 3035 3030 3028 3025 3021 3016 3012 3008 3003 2999 2994 2991 2986 2979 2975 2973 2969 2965 2961 2958 2954 2950 2947 2944 2941 2938 2934 2931 2929 2925 2922 2918 2914 2910 2906 2903 2899 2896 2892 2888 2884 2880 2877 2873 2869 2866 2862 2858 2854 2850 2846 2842 2838 2833 2829 2825 2820 2816 2812 2808 2803 2799 2795 2791 2788 2784 2780
3097 3095 3093 3091 3088 3085 3083 3080 3074 3068 3065 3064 3060 3057 3055 3052 3047 3042 3037 3032 3028 3024 3020 3016 3012 3008 3003 2998 2993 2989 2985 2982 2977 2972 2968 2965 2961 2957 2954 2950 2947 2943 2940 2937 2934 2930 2927 2924 2921 2917 2914 2909 2905 2902 2898 2894 2891 2887 2884 2880 2876 2872 2869 2865 2862 2858 2854 2850 2846 2842 2838 2834 2830 2825 2821 2817 2812 2808 2804 2800 2795 2791 2787 2783 2779 2776
3097 3094 3091 3089 3087 3083 3080 3078 3073 3066 3063 3061 3058 3054 3051 3048 3043 3037 3032 3028 3025 3021 3016 3011 3007 3003 2997 2992 2988 2984 2980 2977 2973 2968 2964 2961 2957 2953 2950 2946 2943 2939 2936 2933 2929 2926 2922 2919 2916 2913 2909 2905 2901 2897 2893 2889 2886 2883 2879 2875 2871 2868 2865 2861 2858 2854 2850 2846 2842 2839 2834 2830 2826 2822 2817 2813 2809 2804 2800 2796 2792 2788 2784 2779 2775 2772
3096 3093 3090 3088 3086 3083 3079 3076 3072 3067 3062 3059 3055 3051 3047 3043 3039 3034 3028 3024 3021 3017 3011 3005 3001 2997 2992 2987 2982 2979 2976 2972 2968 2964 2960 2956 2953 2949 2945 2942 2939 2935 2932 2928 2925 2921 2918 2914 2911 2908 2904 2900 2896 2892 2888 2884 2881 2878 2875 2871 2867 2863 2860 2857 2853 2850 2846 2842 2839 2835 2831 2827 2823 2818 2814 2809 2805 2801 2797 2792 2788 2785 2780 2776 2771 2768
3094 3092 3089 3086 3084 3081 3076 3071 3068 3064 3060 3056 3051 3047 3043 3039 3035 3031 3026 3020 3015 3011 3006 3000 2996 2992 2988 2983 2978 2974 2971 2967 2963 2959 2955 2951 2948 2945 2941 2938 2934 2931 2927 2924 2921 2917 2913 2910 2906 2903 2900 2896 2892 2888 2884 2880 2876 2873 2870 2866 2862 2859 2856 2852 2849 2845 2842 2838 2834 2831 2827 2823 2819 2814 2810 2806 2802 2797 2793 2789 2784 2781 2777 2772 2768 2764
3091 3089 3086 3082 3079 3076 3071 3067 3063 3059 3055 3052 3048 3044 3040 3035 3031 3026 3021 3016 3011 3006 3001 2996 2991 2987 2984 2979 2974 2970 2966 2963 2958 2954 2951 2947 2943 2940 2936 2933 2930 2926 2923 2919 2916 2913 2909 2906 2902 2898 2895 2892 2887 2883 2880 2876 2871 2868 2865 2862 2858 2854 2851 2848 2844 2841 2837 2834 2830 2826 2822 2819 2815 2811 2807 2803 2798 2794 2789 2785 2780 2776 2772 2768 2764 2760
3089 3086 3083 3079 3076 3071 3066 3062 3059 3054 3050 3048 3044 3040 3036 3031 3026 3021 3016 3011 3006 3002 2997 2993 2988 2983 2979 2975 2970 2965 2962 2958 2953 2949 2946 2942 2939 2935 2932 2928 2925 2922 2918 2914 2911 2908 2904 2901 2897 2893 2890 2887 2883 2879 2875 2871 2866 2863 2860 2857 2853 2850 2846 2843 2840 2836 2833 2829 2826 2822 2818 2814 2810 2807 2803 2799 2795 2791 2787 2782 2777 2772 2768 2764 2760 2757
3086 3083 3080 3076 3072 3067 3061 3058 3055 3050 3046 3044 3040 3036 3031 3026 3021 3016 3012 3007 3002 2998 2993 2988 2984 2979 2974 2970 2966 2960 2957 2953 2949 2944 2941 2938 2934 2930 2927 2924 2920 2917 2913 2909 2906 2902 2899 2896 2892 2888 2885 2882 2878 2874 2870 2866 2862 2858 2855 2852 2848 2845 2841 2838 2835 2832 2828 2825 2821 2818 2814 2810 2806 2802 2799 2795 2791 2788 2784 2779 2774 2770 2765 2761 2756 2753
3084 3081 3077 3072 3067 3063 3058 3055 3050 3045 3042 3040 3036 3031 3026 3021 3016 3011 3007 3003 2998 2993 2988 2983 2979 2974 2969 2965 2961 2955 2952 2949 2945 2940 2936 2933 2930 2926 2923 2919 2916 2912 2908 2904 2901 2897 2894 2891 2887 2883 2880 2876 2873 2869 2866 2862 2857 2853 2850 2847 2843 2840 2837 2833 2830 2827 2824 2820 2817 2813 2810 2806 2802 2798 2794 2791 2787 2784 2780 2776 2771 2766 2762 2758 2754 2750
3082 3078 3074 3069 3063 3059 3055 3052 3046 3040 3036 3035 3031 3026 3021 3017 3012 3007 3003 2998 2993 2988 2983 2978 2974 2969 2965 2960 2956 2951 2946 2944 2940 2935 2932 2929 2925 2921 2918 2914 2911 2907 2904 2900 2896 2893 2890 2886 2882 2878 2875 2871 2868 2864 2861 2857 2853 2848 2845 2842 2838 2835 2832 2828 2825 2822 2819 2816 2812 2809 2805 2802 2798 2794 2790 2787 2783 2780 2777 2775 2770 2765 2759 2755 2752 2749
3079 3075 3071 3067 3061 3055 3052 3048 3044 3038 3033 3030 3027 3022 3018 3014 3008 3002 2998 2994 2988 2984 2979 2973 2969 2964 2960 2956 2951 2946 2942 2938 2935 2931 2927 2924 2920 2916 2913 2909 2906 2902 2899 2895 2891 2888 2885 2882 2878 2874 2870 2866 2863 2860 2856 2853 2848 2844 2841 2837 2834 2830 2827 2823 2820 2817 2814 2811 2807 2804 2800 2797 2793 2790 2786 2782 2779 2775 2772 2770 2769 2766 2760 2754 2750 2747